Location: Caltech
(34.1382°N, 118.1253°W)
Time: 20:42:57
(UTC-07:00)

Iridium 62 - Visible Passes

Search period start: 18 August 2017 00:00
Search period end: 28 August 2017 00:00
Orbit: 776 x 779 km, 86.4° (Epoch: 18 August)

Date Brightness Start Highest point End Pass type
(mag) Time Alt. Az. Time Alt. Az. Time Alt. Az.
18 Aug 8.4 02:41:14 10° NE 02:43:31 13° ENE 02:45:13 11° E visible
18 Aug 5.8 04:19:29 10° N 04:24:36 58° W 04:25:39 48° SW visible
19 Aug 5.9 03:45:54 10° N 03:51:07 72° E 03:51:36 67° SE visible
20 Aug 7.0 03:12:43 10° NNE 03:17:32 37° E 03:17:36 37° E visible
20 Aug 7.2 04:54:11 10° NW 04:57:55 20° W 04:58:01 20° W visible
21 Aug 8.0 02:40:07 10° NE 02:43:37 19° ENE 02:43:37 19° ENE visible
21 Aug 6.5 04:19:49 10° NNW 04:24:04 37° WNW 04:24:04 37° WNW visible
22 Aug 6.2 03:46:01 10° N 03:50:07 55° NNW 03:50:07 55° NNW visible
23 Aug 7.0 03:12:35 10° N 03:16:12 41° NE 03:16:12 41° NE visible
23 Aug 7.8 04:55:23 10° NW 04:56:39 13° WNW 04:56:39 13° WNW visible
24 Aug 7.9 02:39:35 10° NNE 02:42:20 23° NE 02:42:20 23° NE visible
24 Aug 7.4 04:20:22 10° NNW 04:22:46 21° NW 04:22:46 21° NW visible
25 Aug 8.6 02:07:24 10° NE 02:08:29 13° NE 02:08:29 13° NE visible
25 Aug 7.2 03:46:15 10° NNW 03:48:54 29° NNW 03:48:54 29° NNW visible
26 Aug 7.4 03:12:35 10° N 03:15:05 29° N 03:15:05 29° N visible
27 Aug 8.0 02:39:19 10° NNE 02:41:16 22° NNE 02:41:16 22° NNE visible
27 Aug 8.0 04:21:11 10° NW 04:21:43 12° NW 04:21:43 12° NW visible
